Location: Castillon
(43.0896°N, 0.2156°E)
Time: 03:07:54
(UTC+00:00)

Cosmos 1980 Rocket - Pass Details

Date: 18 October 2021
Orbit: 828 x 851 km, 71.0° (Epoch: 07 December)

Event Time Altitude Azimuth Distance (km) Brightness Sun altitude
Exits shadow 01:59:02 13° 61° (ENE) 2,271 4.9 -45.5°
Drops below altitude 10° 02:00:28 10° 75° (ENE) 2,480 5.1 -45.3°
Sets 02:04:12 0° 100° (E) 3,410 5.8 -44.8°
